User: anonymous   Login
Location: Great Malvern
(52.1167°N, 2.3167°W)
Time: 17:24:14
(UTC+00:00)
Language:

Cosmos 1733 - Orbit

View from above orbital plane
View from above orbital plane
View from above satellite
View from above satellite

Ground track
Ground track

The orbit data is extracted from the following two-line orbital elements,

1 16611U 86018A   20333.80986651  .00001319  00000-0  64044-4 0  9998
2 16611  82.4907 229.6913 0010787 289.7717  70.2353 15.17573274900105
Epoch (UTC): 28 November 2020 19:26:12
Eccentricity: 0.0010787
inclination: 82.4907°
perigee height: 506 km
apogee height: 520 km
right ascension of ascending node: 229.6913°
argument of perigee: 289.7717°
revolutions per day: 15.17573274
mean anomaly at epoch: 70.2353°
orbit number at epoch: 90010

The dashed part of the orbit path shows where the satellite is in the earth's shadow,  

DLR